Find OneWeb SL0532

NORAD ID: 55140 Int'l Des: 2023-004 Owner: ONEWEBN Country: UK Constellation: oneweb operational
LEOCIRCULARPOLARONEWEB_TYPE

当前视图

正在加载3D地球...

About OneWeb SL0532

OneWeb SL0532 (NORAD 55140) is a oneweb constellation satellite launched Jan 10, 2023 by ONEWEBN of UK. It operates in LEO, CIRCULAR, POLAR, ONEWEB_TYPE orbit with a mass of 148.00 kg.

关于 OneWeb SL0532

正在加载描述...

即将过境

Passes for default location (London). Set your location on the main map for personalized predictions.

高度历史

Loading altitude history...

两行轨道根数

1 55140U 23004A 26171.44964485 -.00009935 00000-0 -25618-1 0 9996
2 55140 87.9130 5.2153 0003045 97.4835 262.6643 13.17732039168010
Epoch: Jun 20, 2026 • Age: 27 hours

当前状态

高度 1224.2 km
速度 7.24 km/s
星下点 -81.93°S, 85.57°E
发射日期 Jan 10, 2023
运行时间 3.4 years
类型 internet

技术详情

分类 Payload
质量 148.00 kg
干质量 140.00 kg
总质量 148.00 kg
长度 1.30 m
直径 1.00 m
跨度 5.00 m
形状 Trapezoid+2 pan
制造商 ONEWUS
平台类型 ARROW
阶段状态 In Orbit
所有者/国家 ONEWEBN/UK

Most Searched